Station Historical Data
Daily Summary for August 27, 2017 Units:  English    Metric   Both
Next Day »
Daily Weekly Monthly Yearly Custom
  High: Low: Average:
Temperature: 96.4 °F 74.2 °F 83.8 °F
Dew Point: 52.3 °F 38.2 °F 44.9 °F
Humidity: 39% 16% 26%
Wind Speed: 10.0mph 0.0mph 2.1mph
Wind Gust: 14.0mph - -
Wind- - SSW
Pressure: 29.95 in 29.84 in -
Precipitation: 0.00 in    
Historical Graphs
 
 
Tabular Data for August 27, 2017
Time Temperature Dew Point Pressure Wind Wind Speed Wind Gust Humidity Rainfall Rate (Hourly) solar Conditions
00:00 77.5 °F 47.0 °F 29.93 in East 4.0 mph 12.0 mph 34% 0.00 in 0.00 W/m2
00:05 77.5 °F 47.0 °F 29.93 in Calm   8.0 mph 34% 0.00 in 0.00 W/m2
00:10 77.5 °F 47.0 °F 29.93 in East 5.0 mph 12.0 mph 34% 0.00 in 0.00 W/m2
00:15 77.5 °F 47.0 °F 29.93 in East 2.0 mph 12.0 mph 34% 0.00 in 0.00 W/m2
00:20 77.5 °F 47.0 °F 29.93 in Calm   9.0 mph 34% 0.00 in 0.00 W/m2
00:25 77.5 °F 47.0 °F 29.93 in ESE 7.0 mph 11.0 mph 34% 0.00 in 0.00 W/m2
00:30 77.5 °F 46.2 °F 29.94 in East 1.0 mph 11.0 mph 33% 0.00 in 0.00 W/m2
00:35 77.6 °F 47.0 °F 29.93 in East 2.0 mph 12.0 mph 34% 0.00 in 0.00 W/m2
00:40 77.6 °F 46.2 °F 29.94 in ESE 6.0 mph 11.0 mph 33% 0.00 in 0.00 W/m2
00:45 77.7 °F 46.3 °F 29.94 in East 4.0 mph 11.0 mph 33% 0.00 in 0.00 W/m2
00:50 77.7 °F 46.3 °F 29.94 in Calm   11.0 mph 33% 0.00 in 0.00 W/m2
00:55 77.8 °F 46.4 °F 29.93 in ESE 6.0 mph 9.0 mph 33% 0.00 in 0.00 W/m2
01:00 77.8 °F 46.4 °F 29.93 in Calm   9.0 mph 33% 0.00 in 0.00 W/m2
01:05 77.8 °F 46.4 °F 29.94 in ESE 6.0 mph 9.0 mph 33% 0.00 in 0.00 W/m2
01:10 77.8 °F 45.6 °F 29.94 in East 8.0 mph 13.0 mph 32% 0.00 in 0.00 W/m2
01:15 77.8 °F 45.6 °F 29.93 in East 5.0 mph 11.0 mph 32% 0.00 in 0.00 W/m2
01:20 77.7 °F 45.5 °F 29.93 in East 1.0 mph 11.0 mph 32% 0.00 in 0.00 W/m2
01:25 77.7 °F 45.5 °F 29.94 in East 1.0 mph 8.0 mph 32% 0.00 in 0.00 W/m2
01:30 77.7 °F 45.5 °F 29.94 in ESE 9.0 mph 11.0 mph 32% 0.00 in 0.00 W/m2
01:35 77.6 °F 45.4 °F 29.93 in ESE 8.0 mph 13.0 mph 32% 0.00 in 0.00 W/m2
01:40 77.5 °F 45.3 °F 29.93 in East 1.0 mph 13.0 mph 32% 0.00 in 0.00 W/m2
01:45 77.4 °F 45.3 °F 29.93 in Calm   13.0 mph 32% 0.00 in 0.00 W/m2
01:50 77.3 °F 45.2 °F 29.93 in East 7.0 mph 9.0 mph 32% 0.00 in 0.00 W/m2
01:55 77.3 °F 45.2 °F 29.93 in East 1.0 mph 9.0 mph 32% 0.00 in 0.00 W/m2
02:00 77.2 °F 45.1 °F 29.93 in East 6.0 mph 9.0 mph 32% 0.00 in 0.00 W/m2
02:05 77.1 °F 45.0 °F 29.93 in Calm   8.0 mph 32% 0.00 in 0.00 W/m2
02:10 77.1 °F 45.0 °F 29.93 in East 1.0 mph 9.0 mph 32% 0.00 in 0.00 W/m2
02:15 76.9 °F 44.8 °F 29.93 in Calm   8.0 mph 32% 0.00 in 0.00 W/m2
02:20 76.8 °F 43.9 °F 29.93 in Calm   8.0 mph 31% 0.00 in 0.00 W/m2
02:26 76.7 °F 43.8 °F 29.93 in Calm   8.0 mph 31% 0.00 in 0.00 W/m2
02:31 76.5 °F 43.7 °F 29.93 in East 4.0 mph 7.0 mph 31% 0.00 in 0.00 W/m2
02:36 76.4 °F 43.6 °F 29.93 in East 5.0 mph 8.0 mph 31% 0.00 in 0.00 W/m2
02:41 76.2 °F 43.4 °F 29.93 in Calm   9.0 mph 31% 0.00 in 0.00 W/m2
02:46 76.1 °F 43.3 °F 29.93 in East 6.0 mph 6.0 mph 31% 0.00 in 0.00 W/m2
02:51 76.0 °F 43.2 °F 29.93 in Calm     31% 0.00 in 0.00 W/m2
02:56 75.9 °F 42.3 °F 29.93 in ESE 6.0 mph 7.0 mph 30% 0.00 in 0.00 W/m2
03:01 75.9 °F 43.1 °F 29.93 in ESE 5.0 mph 7.0 mph 31% 0.00 in 0.00 W/m2
03:06 75.8 °F 42.2 °F 29.93 in Calm     30% 0.00 in 0.00 W/m2
03:11 75.8 °F 42.2 °F 29.93 in ESE 4.0 mph 6.0 mph 30% 0.00 in 0.00 W/m2
03:16 75.9 °F 43.1 °F 29.93 in Calm     31% 0.00 in 0.00 W/m2
03:21 75.8 °F 43.0 °F 29.93 in East 7.0 mph 7.0 mph 31% 0.00 in 0.00 W/m2
03:26 75.8 °F 42.2 °F 29.93 in ESE 6.0 mph 6.0 mph 30% 0.00 in 0.00 W/m2
03:31 75.8 °F 42.2 °F 29.93 in ESE 1.0 mph 6.0 mph 30% 0.00 in 0.00 W/m2
03:36 75.7 °F 42.1 °F 29.93 in ESE 5.0 mph 6.0 mph 30% 0.00 in 0.00 W/m2
03:41 75.7 °F 42.1 °F 29.93 in ESE 7.0 mph 7.0 mph 30% 0.00 in 0.00 W/m2
03:46 75.6 °F 42.0 °F 29.93 in East 1.0 mph 1.0 mph 30% 0.00 in 0.00 W/m2
03:51 75.5 °F 41.0 °F 29.93 in ESE 2.0 mph 6.0 mph 29% 0.00 in 0.00 W/m2
03:56 75.5 °F 41.0 °F 29.93 in Calm   5.0 mph 29% 0.00 in 0.00 W/m2
04:01 75.5 °F 41.0 °F 29.93 in ESE 2.0 mph 8.0 mph 29% 0.00 in 0.00 W/m2
04:06 75.5 °F 41.0 °F 29.93 in ESE 5.0 mph 5.0 mph 29% 0.00 in 0.00 W/m2
04:11 75.4 °F 41.0 °F 29.93 in Calm   1.0 mph 29% 0.00 in 0.00 W/m2
04:16 75.4 °F 41.0 °F 29.93 in Calm     29% 0.00 in 0.00 W/m2
04:21 75.5 °F 40.2 °F 29.93 in Calm   2.0 mph 28% 0.00 in 0.00 W/m2
04:26 75.5 °F 40.2 °F 29.93 in ESE 2.0 mph 7.0 mph 28% 0.00 in 0.00 W/m2
04:31 75.5 °F 40.2 °F 29.93 in ESE 2.0 mph 8.0 mph 28% 0.00 in 0.00 W/m2
04:36 75.6 °F 40.2 °F 29.93 in East 6.0 mph 7.0 mph 28% 0.00 in 0.00 W/m2
04:41 75.6 °F 40.2 °F 29.92 in East 6.0 mph 7.0 mph 28% 0.00 in 0.00 W/m2
04:46 75.6 °F 40.2 °F 29.92 in Calm   5.0 mph 28% 0.00 in 0.00 W/m2
04:51 75.6 °F 40.2 °F 29.92 in East 6.0 mph 6.0 mph 28% 0.00 in 0.00 W/m2
04:56 75.6 °F 40.2 °F 29.93 in East 1.0 mph 8.0 mph 28% 0.00 in 0.00 W/m2
05:01 75.6 °F 40.2 °F 29.92 in Calm   6.0 mph 28% 0.00 in 0.00 W/m2
05:06 75.5 °F 40.2 °F 29.92 in East 7.0 mph 7.0 mph 28% 0.00 in 0.00 W/m2
05:11 75.5 °F 39.2 °F 29.92 in East 7.0 mph 7.0 mph 27% 0.00 in 0.00 W/m2
05:16 75.4 °F 39.1 °F 29.92 in Calm   7.0 mph 27% 0.00 in 0.00 W/m2
05:21 75.4 °F 39.1 °F 29.92 in Calm   5.0 mph 27% 0.00 in 0.00 W/m2
05:26 75.3 °F 40.0 °F 29.92 in Calm   2.0 mph 28% 0.00 in 0.00 W/m2
05:31 75.2 °F 39.0 °F 29.92 in East 1.0 mph 5.0 mph 27% 0.00 in 0.00 W/m2
05:36 75.2 °F 39.9 °F 29.93 in East 5.0 mph 5.0 mph 28% 0.00 in 0.00 W/m2
05:39 75.2 °F 39.0 °F 29.93 in Calm   6.0 mph 27% 0.00 in 0.00 W/m2
05:44 75.1 °F 38.9 °F 29.93 in East 1.0 mph 11.0 mph 27% 0.00 in 0.00 W/m2
05:49 75.0 °F 38.8 °F 29.93 in Calm   11.0 mph 27% 0.00 in 0.00 W/m2
05:54 74.9 °F 38.7 °F 29.93 in East 5.0 mph 8.0 mph 27% 0.00 in 0.00 W/m2
05:59 74.8 °F 38.6 °F 29.93 in East 5.0 mph 7.0 mph 27% 0.00 in 0.00 W/m2
06:05 74.7 °F 39.5 °F 29.93 in Calm   8.0 mph 28% 0.00 in 0.00 W/m2
06:10 74.7 °F 38.5 °F 29.93 in East 5.0 mph 8.0 mph 27% 0.00 in 0.00 W/m2
06:15 74.6 °F 38.5 °F 29.93 in Calm   5.0 mph 27% 0.00 in 0.00 W/m2
06:18 74.5 °F 38.4 °F 29.93 in East 6.0 mph 8.0 mph 27% 0.00 in 0.00 W/m2
06:23 74.4 °F 38.3 °F 29.94 in East 8.0 mph 8.0 mph 27% 0.00 in 0.00 W/m2
06:28 74.3 °F 38.2 °F 29.94 in East 5.0 mph 7.0 mph 27% 0.00 in 5.00 W/m2
06:33 74.3 °F 38.2 °F 29.94 in East 2.0 mph 4.0 mph 27% 0.00 in 5.00 W/m2
06:38 74.2 °F 39.0 °F 29.94 in East 4.0 mph 6.0 mph 28% 0.00 in 7.00 W/m2
06:43 74.2 °F 39.0 °F 29.94 in Calm   8.0 mph 28% 0.00 in 11.00 W/m2
06:48 74.2 °F 39.0 °F 29.94 in Calm   6.0 mph 28% 0.00 in 12.00 W/m2
06:53 74.3 °F 39.1 °F 29.94 in East 4.0 mph 6.0 mph 28% 0.00 in 12.00 W/m2
06:58 74.4 °F 39.2 °F 29.94 in Calm   6.0 mph 28% 0.00 in 14.00 W/m2
07:03 74.5 °F 38.4 °F 29.94 in Calm   4.0 mph 27% 0.00 in 19.00 W/m2
07:08 74.7 °F 38.5 °F 29.94 in ENE 1.0 mph 4.0 mph 27% 0.00 in 28.00 W/m2
07:13 74.9 °F 39.6 °F 29.94 in Calm   3.0 mph 28% 0.00 in 39.00 W/m2
07:18 75.0 °F 39.7 °F 29.94 in Calm   1.0 mph 28% 0.00 in 44.00 W/m2
07:23 75.1 °F 39.8 °F 29.94 in ENE 1.0 mph 4.0 mph 28% 0.00 in 49.00 W/m2
07:28 75.2 °F 40.8 °F 29.94 in ENE 3.0 mph 4.0 mph 29% 0.00 in 51.00 W/m2
07:33 75.3 °F 40.9 °F 29.94 in Calm   3.0 mph 29% 0.00 in 58.00 W/m2
07:38 75.4 °F 41.8 °F 29.95 in ENE 1.0 mph 4.0 mph 30% 0.00 in 65.00 W/m2
07:41 75.4 °F 41.8 °F 29.94 in Calm     30% 0.00 in 67.00 W/m2
07:46 75.4 °F 41.8 °F 29.94 in ENE 4.0 mph 4.0 mph 30% 0.00 in 74.00 W/m2
07:51 75.4 °F 42.7 °F 29.95 in Calm   1.0 mph 31% 0.00 in 84.00 W/m2
07:56 75.3 °F 42.6 °F 29.95 in Calm     31% 0.00 in 97.00 W/m2
08:01 75.3 °F 43.4 °F 29.95 in ENE 2.0 mph 2.0 mph 32% 0.00 in 114.00 W/m2
08:06 75.2 °F 43.3 °F 29.95 in ENE 2.0 mph 4.0 mph 32% 0.00 in 125.00 W/m2
08:11 75.1 °F 43.3 °F 29.95 in Calm   2.0 mph 32% 0.00 in 137.00 W/m2
08:16 75.1 °F 44.1 °F 29.95 in Calm   1.0 mph 33% 0.00 in 169.00 W/m2
08:21 75.0 °F 44.8 °F 29.95 in Calm   4.0 mph 34% 0.00 in 278.00 W/m2
08:26 75.1 °F 45.6 °F 29.95 in ENE 2.0 mph 3.0 mph 35% 0.00 in 448.00 W/m2
08:31 75.3 °F 45.8 °F 29.94 in Calm     35% 0.00 in 454.00 W/m2
08:36 75.6 °F 46.8 °F 29.95 in Calm   4.0 mph 36% 0.00 in 455.00 W/m2
08:41 76.0 °F 47.9 °F 29.95 in Calm   1.0 mph 37% 0.00 in 454.00 W/m2
08:46 76.4 °F 48.2 °F 29.94 in Calm     37% 0.00 in 466.00 W/m2
08:51 76.9 °F 49.4 °F 29.95 in NE 1.0 mph 2.0 mph 38% 0.00 in 483.00 W/m2
08:56 77.4 °F 49.8 °F 29.94 in NE 2.0 mph 2.0 mph 38% 0.00 in 478.00 W/m2
08:58 77.5 °F 49.9 °F 29.94 in Calm   2.0 mph 38% 0.00 in 487.00 W/m2
09:03 78.0 °F 51.1 °F 29.95 in Calm   1.0 mph 39% 0.00 in 513.00 W/m2
09:08 78.5 °F 51.5 °F 29.94 in Calm   1.0 mph 39% 0.00 in 171.00 W/m2
09:13 79.0 °F 51.2 °F 29.95 in Calm   3.0 mph 38% 0.00 in 127.00 W/m2
09:19 79.4 °F 52.3 °F 29.94 in Calm   1.0 mph 39% 0.00 in 529.00 W/m2
09:24 79.7 °F 51.9 °F 29.94 in Calm   2.0 mph 38% 0.00 in 527.00 W/m2
09:29 79.9 °F 47.4 °F 29.94 in Calm   6.0 mph 32% 0.00 in 538.00 W/m2
09:34 80.1 °F 46.8 °F 29.94 in NNE 4.0 mph 8.0 mph 31% 0.00 in 554.00 W/m2
09:39 80.4 °F 47.0 °F 29.94 in NNE 1.0 mph 5.0 mph 31% 0.00 in 571.00 W/m2
09:44 81.0 °F 45.8 °F 29.95 in NNW 5.0 mph 9.0 mph 29% 0.00 in 592.00 W/m2
09:46 81.3 °F 44.2 °F 29.95 in NNW 7.0 mph 7.0 mph 27% 0.00 in 608.00 W/m2
09:51 81.9 °F 45.6 °F 29.95 in Calm   5.0 mph 28% 0.00 in 267.00 W/m2
09:56 82.9 °F 45.5 °F 29.95 in Calm     27% 0.00 in 670.00 W/m2
10:01 83.8 °F 48.2 °F 29.95 in NNW 5.0 mph 6.0 mph 29% 0.00 in 650.00 W/m2
10:06 84.4 °F 47.8 °F 29.95 in NNW 4.0 mph 7.0 mph 28% 0.00 in 668.00 W/m2
10:11 84.9 °F 45.2 °F 29.94 in NNW 1.0 mph 1.0 mph 25% 0.00 in 687.00 W/m2
10:16 85.4 °F 44.5 °F 29.95 in Calm     24% 0.00 in 687.00 W/m2
10:21 85.8 °F 48.0 °F 29.95 in Calm   6.0 mph 27% 0.00 in 749.00 W/m2
10:26 86.0 °F 46.1 °F 29.94 in North 4.0 mph 6.0 mph 25% 0.00 in 679.00 W/m2
10:31 86.3 °F 45.3 °F 29.94 in Calm   8.0 mph 24% 0.00 in 784.00 W/m2
10:36 86.6 °F 45.5 °F 29.94 in North 6.0 mph 7.0 mph 24% 0.00 in 373.00 W/m2
10:41 86.9 °F 45.8 °F 29.94 in North 2.0 mph 6.0 mph 24% 0.00 in 754.00 W/m2
10:46 87.2 °F 47.1 °F 29.94 in NW 6.0 mph 14.0 mph 25% 0.00 in 768.00 W/m2
10:51 87.7 °F 45.3 °F 29.94 in NW 3.0 mph 9.0 mph 23% 0.00 in 802.00 W/m2
10:56 88.3 °F 44.7 °F 29.94 in NNW 6.0 mph 8.0 mph 22% 0.00 in 823.00 W/m2
11:01 88.8 °F 43.9 °F 29.94 in NNW 2.0 mph 9.0 mph 21% 0.00 in 816.00 W/m2
11:06 89.3 °F 44.3 °F 29.94 in NNW 3.0 mph 7.0 mph 21% 0.00 in 809.00 W/m2
11:12 89.7 °F 44.6 °F 29.94 in NNW 6.0 mph 9.0 mph 21% 0.00 in 821.00 W/m2
11:17 89.8 °F 45.9 °F 29.94 in North 5.0 mph 9.0 mph 22% 0.00 in 840.00 W/m2
11:22 90.1 °F 43.7 °F 29.93 in NNW 9.0 mph 11.0 mph 20% 0.00 in 911.00 W/m2
11:27 90.3 °F 43.8 °F 29.93 in Calm   5.0 mph 20% 0.00 in 995.00 W/m2
11:32 90.6 °F 44.1 °F 29.93 in NW 1.0 mph 3.0 mph 20% 0.00 in 1046.00 W/m2
11:37 91.0 °F 43.1 °F 29.93 in NNE 8.0 mph 10.0 mph 19% 0.00 in 359.00 W/m2
11:42 91.2 °F 44.6 °F 29.93 in Calm   6.0 mph 20% 0.00 in 404.00 W/m2
11:47 91.4 °F 44.7 °F 29.93 in Calm   3.0 mph 20% 0.00 in 905.00 W/m2
11:52 91.7 °F 46.3 °F 29.93 in WNW 5.0 mph 6.0 mph 21% 0.00 in 881.00 W/m2
11:57 92.2 °F 46.7 °F 29.93 in Calm   6.0 mph 21% 0.00 in 886.00 W/m2
12:02 92.6 °F 45.7 °F 29.93 in WNW 3.0 mph 8.0 mph 20% 0.00 in 900.00 W/m2
12:07 93.0 °F 46.0 °F 29.93 in NNW 4.0 mph 11.0 mph 20% 0.00 in 912.00 W/m2
12:12 93.5 °F 43.7 °F 29.93 in NW 6.0 mph 10.0 mph 18% 0.00 in 951.00 W/m2
12:17 93.7 °F 40.8 °F 29.93 in NW 4.0 mph 6.0 mph 16% 0.00 in 958.00 W/m2
12:23 94.2 °F 42.8 °F 29.92 in Calm   8.0 mph 17% 0.00 in 967.00 W/m2
12:28 94.6 °F 46.0 °F 29.92 in WSW 3.0 mph 9.0 mph 19% 0.00 in 976.00 W/m2
12:33 94.7 °F 44.7 °F 29.92 in Calm   5.0 mph 18% 0.00 in 998.00 W/m2
12:38 95.2 °F 45.1 °F 29.92 in WNW 6.0 mph 8.0 mph 18% 0.00 in 979.00 W/m2
12:43 95.6 °F 45.4 °F 29.92 in Calm   8.0 mph 18% 0.00 in 986.00 W/m2
12:48 95.9 °F 45.6 °F 29.92 in WNW 6.0 mph 10.0 mph 18% 0.00 in 984.00 W/m2
12:53 96.2 °F 44.4 °F 29.92 in Calm   7.0 mph 17% 0.00 in 1023.00 W/m2
12:58 96.3 °F 44.4 °F 29.92 in West 4.0 mph 6.0 mph 17% 0.00 in 984.00 W/m2
13:03 96.4 °F 46.0 °F 29.91 in Calm   6.0 mph 18% 0.00 in 633.00 W/m2
13:08 96.1 °F 45.8 °F 29.91 in West 6.0 mph 8.0 mph 18% 0.00 in 605.00 W/m2
13:13 96.0 °F 45.7 °F 29.91 in Calm   7.0 mph 18% 0.00 in 974.00 W/m2
13:18 95.7 °F 45.5 °F 29.91 in West 9.0 mph 9.0 mph 18% 0.00 in 1002.00 W/m2
13:23 95.5 °F 45.3 °F 29.91 in WNW 3.0 mph 9.0 mph 18% 0.00 in 301.00 W/m2
13:28 95.3 °F 46.6 °F 29.91 in NW 1.0 mph 8.0 mph 19% 0.00 in 343.00 W/m2
13:33 95.0 °F 44.9 °F 29.91 in West 3.0 mph 6.0 mph 18% 0.00 in 373.00 W/m2
13:38 94.6 °F 47.4 °F 29.91 in WNW 3.0 mph 7.0 mph 20% 0.00 in 425.00 W/m2
13:40 94.4 °F 47.2 °F 29.91 in WNW 4.0 mph 7.0 mph 20% 0.00 in 661.00 W/m2
13:45 94.2 °F 47.0 °F 29.91 in West 4.0 mph 9.0 mph 20% 0.00 in 1041.00 W/m2
13:50 94.2 °F 45.7 °F 29.91 in WNW 4.0 mph 10.0 mph 19% 0.00 in 926.00 W/m2
13:55 94.6 °F 44.6 °F 29.90 in WNW 5.0 mph 11.0 mph 18% 0.00 in 861.00 W/m2
14:01 95.0 °F 46.3 °F 29.90 in Calm   12.0 mph 19% 0.00 in 838.00 W/m2
14:06 95.3 °F 46.6 °F 29.90 in NW 1.0 mph 12.0 mph 19% 0.00 in 828.00 W/m2
14:11 95.8 °F 45.5 °F 29.90 in Calm   12.0 mph 18% 0.00 in 823.00 W/m2
14:16 96.2 °F 47.3 °F 29.89 in Calm   11.0 mph 19% 0.00 in 810.00 W/m2
14:21 96.0 °F 47.1 °F 29.89 in Calm     19% 0.00 in 805.00 W/m2
14:26 95.7 °F 48.3 °F 29.89 in Calm   5.0 mph 20% 0.00 in 798.00 W/m2
14:31 95.6 °F 48.2 °F 29.89 in WSW 2.0 mph 3.0 mph 20% 0.00 in 791.00 W/m2
14:36 95.7 °F 46.9 °F 29.89 in West 3.0 mph 12.0 mph 19% 0.00 in 786.00 W/m2
14:41 95.6 °F 46.8 °F 29.89 in West 10.0 mph 13.0 mph 19% 0.00 in 777.00 W/m2
14:46 95.6 °F 46.8 °F 29.89 in Calm   10.0 mph 19% 0.00 in 770.00 W/m2
14:51 95.8 °F 47.0 °F 29.89 in WNW 3.0 mph 3.0 mph 19% 0.00 in 766.00 W/m2
14:56 96.0 °F 45.7 °F 29.89 in WSW 2.0 mph 8.0 mph 18% 0.00 in 763.00 W/m2
15:01 96.0 °F 45.7 °F 29.89 in Calm   9.0 mph 18% 0.00 in 761.00 W/m2
15:06 95.9 °F 47.0 °F 29.89 in WSW 4.0 mph 10.0 mph 19% 0.00 in 756.00 W/m2
15:11 95.9 °F 45.6 °F 29.89 in WNW 6.0 mph 8.0 mph 18% 0.00 in 742.00 W/m2
15:16 95.9 °F 45.6 °F 29.88 in West 2.0 mph 7.0 mph 18% 0.00 in 717.00 W/m2
15:21 95.7 °F 45.5 °F 29.88 in NW 1.0 mph 8.0 mph 18% 0.00 in 714.00 W/m2
15:26 95.4 °F 45.2 °F 29.88 in Calm     18% 0.00 in 717.00 W/m2
15:31 95.4 °F 45.2 °F 29.88 in West 2.0 mph 10.0 mph 18% 0.00 in 691.00 W/m2
15:36 95.2 °F 47.8 °F 29.88 in West 1.0 mph 8.0 mph 20% 0.00 in 680.00 W/m2
15:41 95.1 °F 46.4 °F 29.87 in NW 4.0 mph 9.0 mph 19% 0.00 in 694.00 W/m2
15:46 95.2 °F 46.5 °F 29.87 in Calm   9.0 mph 19% 0.00 in 671.00 W/m2
15:56 95.3 °F 46.6 °F 29.87 in NW 2.0 mph 8.0 mph 19% 0.00 in 612.00 W/m2
16:01 95.3 °F 45.1 °F 29.87 in WNW 5.0 mph 5.0 mph 18% 0.00 in 598.00 W/m2
16:06 95.3 °F 46.6 °F 29.87 in NW 1.0 mph 1.0 mph 19% 0.00 in 589.00 W/m2
16:11 95.2 °F 46.5 °F 29.87 in West 3.0 mph 3.0 mph 19% 0.00 in 570.00 W/m2
16:16 95.1 °F 46.4 °F 29.87 in NW 1.0 mph 6.0 mph 19% 0.00 in 559.00 W/m2
16:21 95.1 °F 46.4 °F 29.86 in West 6.0 mph 8.0 mph 19% 0.00 in 548.00 W/m2
16:26 95.0 °F 44.9 °F 29.86 in NW 3.0 mph 3.0 mph 18% 0.00 in 536.00 W/m2
16:31 94.9 °F 46.2 °F 29.86 in Calm     19% 0.00 in 522.00 W/m2
16:36 94.9 °F 43.3 °F 29.86 in NW 3.0 mph 4.0 mph 17% 0.00 in 506.00 W/m2
16:41 94.8 °F 43.2 °F 29.86 in WSW 5.0 mph 7.0 mph 17% 0.00 in 494.00 W/m2
16:46 94.7 °F 43.2 °F 29.86 in NNW 2.0 mph 5.0 mph 17% 0.00 in 478.00 W/m2
16:51 94.6 °F 43.1 °F 29.86 in Calm     17% 0.00 in 464.00 W/m2
16:56 94.6 °F 43.1 °F 29.86 in NW 3.0 mph 6.0 mph 17% 0.00 in 448.00 W/m2
17:01 94.5 °F 43.0 °F 29.86 in WSW 4.0 mph 7.0 mph 17% 0.00 in 434.00 W/m2
17:06 94.3 °F 42.8 °F 29.86 in Calm   4.0 mph 17% 0.00 in 417.00 W/m2
17:11 94.2 °F 42.8 °F 29.86 in Calm   1.0 mph 17% 0.00 in 406.00 W/m2
17:16 94.1 °F 44.2 °F 29.85 in Calm   2.0 mph 18% 0.00 in 390.00 W/m2
17:21 94.0 °F 45.5 °F 29.85 in NW 3.0 mph 3.0 mph 19% 0.00 in 369.00 W/m2
17:26 93.9 °F 44.0 °F 29.85 in NW 2.0 mph 3.0 mph 18% 0.00 in 357.00 W/m2
17:31 93.8 °F 43.9 °F 29.85 in NNW 5.0 mph 5.0 mph 18% 0.00 in 341.00 W/m2
17:36 93.7 °F 43.8 °F 29.85 in NW 5.0 mph 5.0 mph 18% 0.00 in 329.00 W/m2
17:41 93.6 °F 45.2 °F 29.85 in NW 1.0 mph 2.0 mph 19% 0.00 in 311.00 W/m2
17:46 93.5 °F 42.2 °F 29.85 in NW 3.0 mph 3.0 mph 17% 0.00 in 297.00 W/m2
17:51 93.4 °F 42.1 °F 29.85 in NW 4.0 mph 4.0 mph 17% 0.00 in 281.00 W/m2
17:56 93.3 °F 46.3 °F 29.85 in NW 2.0 mph 2.0 mph 20% 0.00 in 267.00 W/m2
18:01 93.1 °F 46.1 °F 29.85 in North 3.0 mph 9.0 mph 20% 0.00 in 250.00 W/m2
18:06 92.9 °F 46.0 °F 29.85 in NW 5.0 mph 6.0 mph 20% 0.00 in 232.00 W/m2
18:11 92.7 °F 43.0 °F 29.85 in NNW 5.0 mph 7.0 mph 18% 0.00 in 218.00 W/m2
18:16 92.6 °F 44.4 °F 29.85 in NNW 1.0 mph 7.0 mph 19% 0.00 in 206.00 W/m2
18:21 92.4 °F 45.5 °F 29.85 in Calm   5.0 mph 20% 0.00 in 188.00 W/m2
18:26 92.1 °F 46.6 °F 29.85 in NW 6.0 mph 7.0 mph 21% 0.00 in 171.00 W/m2
18:31 91.8 °F 46.3 °F 29.84 in North 5.0 mph 5.0 mph 21% 0.00 in 153.00 W/m2
18:33 91.7 °F 46.3 °F 29.85 in Calm   5.0 mph 21% 0.00 in 146.00 W/m2
18:38 91.4 °F 47.2 °F 29.84 in NNW 5.0 mph 6.0 mph 22% 0.00 in 127.00 W/m2
18:43 91.1 °F 45.8 °F 29.84 in Calm   4.0 mph 21% 0.00 in 111.00 W/m2
18:48 90.8 °F 46.8 °F 29.84 in Calm   7.0 mph 22% 0.00 in 93.00 W/m2
18:58 90.4 °F 46.4 °F 29.85 in NW 1.0 mph 8.0 mph 22% 0.00 in 65.00 W/m2
19:03 90.2 °F 48.6 °F 29.85 in Calm   2.0 mph 24% 0.00 in 53.00 W/m2
19:08 89.9 °F 48.3 °F 29.85 in Calm   4.0 mph 24% 0.00 in 42.00 W/m2
19:13 89.5 °F 48.0 °F 29.85 in NW 1.0 mph 1.0 mph 24% 0.00 in 32.00 W/m2
19:18 88.8 °F 48.5 °F 29.85 in Calm   7.0 mph 25% 0.00 in 25.00 W/m2
19:19 88.6 °F 48.3 °F 29.85 in NNW 3.0 mph 7.0 mph 25% 0.00 in 23.00 W/m2
19:25 88.1 °F 47.9 °F 29.85 in Calm   1.0 mph 25% 0.00 in 19.00 W/m2
19:30 87.4 °F 48.3 °F 29.85 in Calm   3.0 mph 26% 0.00 in 16.00 W/m2
19:35 86.8 °F 48.8 °F 29.85 in Calm   3.0 mph 27% 0.00 in 11.00 W/m2
19:40 86.2 °F 48.3 °F 29.85 in Calm   4.0 mph 27% 0.00 in 7.00 W/m2
19:45 85.5 °F 47.7 °F 29.85 in Calm   2.0 mph 27% 0.00 in 5.00 W/m2
19:50 85.0 °F 48.3 °F 29.85 in NNW 2.0 mph 5.0 mph 28% 0.00 in 0.00 W/m2
19:55 84.6 °F 47.0 °F 29.85 in NNW 1.0 mph 2.0 mph 27% 0.00 in 0.00 W/m2
20:00 84.2 °F 47.6 °F 29.85 in Calm   3.0 mph 28% 0.00 in 0.00 W/m2
20:05 83.9 °F 47.3 °F 29.85 in Calm   4.0 mph 28% 0.00 in 0.00 W/m2
20:10 83.6 °F 47.1 °F 29.86 in Calm   3.0 mph 28% 0.00 in 0.00 W/m2
20:15 83.3 °F 47.8 °F 29.86 in Calm   6.0 mph 29% 0.00 in 0.00 W/m2
20:20 83.0 °F 47.5 °F 29.86 in NNW 1.0 mph 5.0 mph 29% 0.00 in 0.00 W/m2
20:25 82.8 °F 47.3 °F 29.86 in Calm   4.0 mph 29% 0.00 in 0.00 W/m2
20:30 82.7 °F 47.2 °F 29.86 in NNW 1.0 mph 2.0 mph 29% 0.00 in 0.00 W/m2
20:35 82.6 °F 47.2 °F 29.86 in Calm   3.0 mph 29% 0.00 in 0.00 W/m2
20:40 82.5 °F 47.1 °F 29.86 in Calm   3.0 mph 29% 0.00 in 0.00 W/m2
20:45 82.5 °F 46.1 °F 29.86 in Calm   2.0 mph 28% 0.00 in 0.00 W/m2
20:50 82.4 °F 47.0 °F 29.86 in Calm   3.0 mph 29% 0.00 in 0.00 W/m2
20:55 82.4 °F 47.0 °F 29.86 in Calm   1.0 mph 29% 0.00 in 0.00 W/m2
21:00 82.3 °F 46.9 °F 29.86 in Calm   1.0 mph 29% 0.00 in 0.00 W/m2
21:05 82.3 °F 46.9 °F 29.87 in Calm     29% 0.00 in 0.00 W/m2
21:10 82.3 °F 46.9 °F 29.87 in Calm     29% 0.00 in 0.00 W/m2
21:12 82.3 °F 46.9 °F 29.87 in Calm     29% 0.00 in 0.00 W/m2
21:17 82.2 °F 47.7 °F 29.87 in Calm     30% 0.00 in 0.00 W/m2
21:22 82.2 °F 47.7 °F 29.87 in Calm     30% 0.00 in 0.00 W/m2
21:27 82.1 °F 47.6 °F 29.87 in Calm     30% 0.00 in 0.00 W/m2
21:32 82.0 °F 48.4 °F 29.87 in Calm   1.0 mph 31% 0.00 in 0.00 W/m2
21:37 81.9 °F 48.3 °F 29.87 in Calm     31% 0.00 in 0.00 W/m2
21:42 81.7 °F 48.2 °F 29.87 in Calm     31% 0.00 in 0.00 W/m2
21:47 81.6 °F 48.1 °F 29.88 in Calm     31% 0.00 in 0.00 W/m2
21:52 81.4 °F 47.9 °F 29.88 in Calm     31% 0.00 in 0.00 W/m2
21:55 81.3 °F 47.8 °F 29.88 in Calm     31% 0.00 in 0.00 W/m2
22:00 81.2 °F 47.7 °F 29.88 in Calm   1.0 mph 31% 0.00 in 0.00 W/m2
22:05 81.1 °F 47.6 °F 29.88 in Calm   1.0 mph 31% 0.00 in 0.00 W/m2
22:10 80.9 °F 47.5 °F 29.88 in Calm   1.0 mph 31% 0.00 in 0.00 W/m2
22:15 80.8 °F 47.4 °F 29.88 in Calm   2.0 mph 31% 0.00 in 0.00 W/m2
22:20 80.7 °F 47.3 °F 29.88 in Calm   4.0 mph 31% 0.00 in 0.00 W/m2
22:25 80.5 °F 48.0 °F 29.88 in ENE 1.0 mph 5.0 mph 32% 0.00 in 0.00 W/m2
22:30 80.4 °F 47.9 °F 29.88 in Calm   6.0 mph 32% 0.00 in 0.00 W/m2
22:35 80.3 °F 47.8 °F 29.88 in Calm   5.0 mph 32% 0.00 in 0.00 W/m2
22:40 80.1 °F 47.6 °F 29.88 in Calm   5.0 mph 32% 0.00 in 0.00 W/m2
22:45 80.0 °F 47.5 °F 29.88 in Calm   6.0 mph 32% 0.00 in 0.00 W/m2
22:50 79.9 °F 47.4 °F 29.87 in East 5.0 mph 6.0 mph 32% 0.00 in 0.00 W/m2
22:55 79.8 °F 47.3 °F 29.87 in Calm   5.0 mph 32% 0.00 in 0.00 W/m2
23:00 79.7 °F 47.3 °F 29.88 in Calm   6.0 mph 32% 0.00 in 0.00 W/m2
23:10 79.6 °F 47.2 °F 29.88 in East 1.0 mph 5.0 mph 32% 0.00 in 0.00 W/m2
23:15 79.5 °F 47.1 °F 29.87 in East 6.0 mph 8.0 mph 32% 0.00 in 0.00 W/m2
23:20 79.4 °F 47.0 °F 29.87 in East 1.0 mph 11.0 mph 32% 0.00 in 0.00 W/m2
23:25 79.3 °F 47.7 °F 29.87 in East 1.0 mph 8.0 mph 33% 0.00 in 0.00 W/m2
23:30 79.3 °F 46.9 °F 29.87 in East 7.0 mph 8.0 mph 32% 0.00 in 0.00 W/m2
23:35 79.2 °F 46.8 °F 29.87 in Calm   8.0 mph 32% 0.00 in 0.00 W/m2
23:40 79.2 °F 46.8 °F 29.87 in Calm   5.0 mph 32% 0.00 in 0.00 W/m2
23:45 79.1 °F 45.9 °F 29.87 in Calm   5.0 mph 31% 0.00 in 0.00 W/m2
23:50 79.1 °F 46.7 °F 29.88 in East 6.0 mph 8.0 mph 32% 0.00 in 0.00 W/m2
23:55 79.1 °F 46.7 °F 29.88 in East 4.0 mph 8.0 mph 32% 0.00 in 0.00 W/m2
Foresthill Weather
 WU-history PHP script courtesy of   Juneau County Weather.
powered by Cumulus v1.9.3 (1059)
Ambient Weather VWS v14.00
Top Contact Website Map Copyright © 2007 - 2018 Foresthillweather.com Never base important decisions on this or any weather information obtained from the Internet